Theta_e
314 316 315 312 313 313 314 313 313 312 310 312 313 311 312 314 314 314 313 314 313 313 314 314 316 318 319 319 317 317 318 319 320 320 323 326 331 334 335 340 340 339 338 338
314 313 310 311 312 312 311 310 310 309 309 310 309 312 314 314 314 314 313 313 312 312 313 316 322 322 322 320 318 317 318 319 320 322 325 326 331 334 337 338 339 338 337 337
313 310 310 311 310 310 309 310 310 309 310 310 313 315 318 314 314 313 313 311 310 312 313 315 321 322 321 319 317 317 318 319 321 324 326 329 333 336 338 339 338 337 337 336
310 308 308 309 310 309 309 310 310 311 311 313 313 315 317 315 315 313 312 311 310 312 312 312 318 323 322 321 319 319 319 320 322 324 327 329 332 336 337 338 336 335 335 336
309 310 308 308 308 308 309 310 312 312 312 313 314 316 317 314 315 314 312 310 310 310 310 311 319 320 323 323 323 322 321 323 323 324 326 329 332 333 335 336 336 335 335 335
308 306 307 307 307 308 310 311 312 313 313 318 314 315 317 316 315 313 311 309 310 309 309 310 312 312 315 323 323 321 322 323 324 328 328 330 332 332 333 334 335 334 333 333
308 307 306 306 308 309 310 312 315 317 320 318 313 315 316 313 313 311 311 309 309 308 308 310 310 309 310 314 324 324 324 325 327 327 328 330 332 333 334 334 334 334 333 332
311 310 307 306 306 308 310 313 316 319 318 317 312 316 316 312 312 311 310 309 308 308 308 309 308 307 308 311 320 324 325 326 325 326 329 330 331 335 335 335 334 334 333 332
309 307 305 305 305 306 311 314 311 313 310 314 313 313 312 312 312 311 310 309 308 307 307 307 306 306 307 309 312 322 325 325 326 328 328 330 331 330 330 332 332 332 332 331
306 309 305 305 304 304 309 308 315 314 318 316 313 314 315 313 313 311 310 309 308 307 306 306 305 305 306 308 310 315 322 325 327 326 329 329 329 329 329 329 330 329 330 330
304 306 307 305 307 306 306 309 310 311 312 318 315 315 312 313 312 311 310 310 309 308 307 306 304 306 306 307 309 312 318 324 325 328 328 328 329 329 330 329 329 329 329 329
303 304 307 305 304 302 303 305 308 315 315 310 312 316 312 312 310 310 309 309 309 309 308 306 305 306 306 306 307 309 314 321 322 323 324 324 326 327 328 328 329 329 328 328
304 304 309 305 304 302 304 303 304 305 306 314 316 315 311 311 310 309 309 309 309 308 308 308 307 306 306 305 305 306 309 314 318 320 321 322 322 323 323 324 324 326 328 328
304 302 305 307 306 302 305 304 303 305 314 312 311 310 309 310 310 310 309 309 309 308 308 308 307 306 305 305 304 305 308 310 314 316 317 318 319 320 321 322 322 323 324 325
300 304 301 303 302 301 304 305 305 304 307 310 307 307 307 307 308 309 308 308 308 308 307 307 306 306 305 305 305 305 305 305 310 312 312 313 315 318 319 319 320 321 321 322
299 305 299 302 302 302 304 305 305 305 304 304 305 307 306 306 306 309 308 308 308 308 307 306 305 305 304 304 304 305 304 304 306 307 308 310 312 313 314 315 316 317 317 318
300 303 303 305 301 299 305 302 303 305 304 305 308 306 306 309 309 309 308 308 308 307 306 306 305 304 303 302 302 303 304 304 304 305 305 306 307 308 309 310 311 311 312 313
300 301 302 306 301 308 301 304 303 305 304 305 305 306 306 307 308 308 308 308 308 307 306 305 304 304 302 301 302 303 303 304 304 304 304 304 305 306 306 307 307 307 307 308
298 301 305 305 303 303 300 298 303 307 304 305 305 305 305 306 307 308 308 307 308 307 306 304 303 303 302 301 301 302 303 304 304 304 303 304 304 305 305 305 305 305 305 305
297 298 303 302 304 305 301 304 305 305 304 304 304 305 305 306 309 307 305 306 306 305 304 304 303 302 302 301 301 302 302 303 302 302 302 303 303 304 304 303 303 303 304 304
303 301 304 303 305 303 300 305 304 303 304 301 304 305 305 307 307 305 304 305 305 305 303 303 302 303 302 300 300 301 301 301 300 301 302 302 302 302 302 302 302 302 303 303
304 305 304 301 303 306 300 304 305 305 298 303 303 305 305 306 306 305 305 305 305 303 301 302 302 302 301 300 300 300 300 299 300 300 301 301 301 301 301 302 302 302 302 303
302 303 305 304 307 300 304 306 305 300 303 302 304 304 304 305 305 305 305 305 304 302 301 301 301 301 300 299 299 300 299 298 299 300 300 300 300 300 300 301 301 301 301 301
298 298 301 302 305 302 300 302 303 303 302 302 304 304 304 304 304 304 304 304 303 302 301 299 299 300 300 299 299 299 297 297 297 298 298 298 299 299 299 299 299 299 299 299
301 298 301 301 302 301 302 300 301 301 301 302 301 303 303 303 304 304 304 303 303 301 299 298 298 298 299 299 299 298 297 297 297 297 297 298 298 298 298 297 297 297 297 296
298 302 302 305 306 305 305 305 302 301 300 300 300 301 301 303 304 304 303 303 301 300 298 297 297 297 297 298 298 298 297 296 297 298 298 298 297 297 297 297 297 295 294 293
Wind_Speed
2 5 7 8 7 8 6 6 8 14 9 9 8 15 16 8 13 15 19 19 18 19 24 35 37 31 28 27 29 30 27 26 26 26 25 26 27 28 31 34 34 38 36 39
5 7 3 8 9 8 6 10 12 9 6 10 11 13 8 5 12 16 19 18 18 21 24 27 24 24 21 26 29 28 30 28 27 26 26 27 28 30 33 37 39 42 40 38
6 7 7 5 6 6 6 10 10 9 11 5 8 6 7 11 13 19 22 19 19 20 22 21 23 13 9 18 23 26 27 27 28 29 25 24 25 29 31 35 36 38 39 39
4 3 5 7 7 4 11 7 6 6 7 1 6 1 3 16 18 21 23 22 21 21 22 20 18 9 8 11 15 20 23 25 26 27 27 30 29 24 25 32 30 35 39 40
1 4 6 7 6 7 6 7 9 7 6 5 3 3 4 14 21 24 24 23 22 21 21 21 17 23 8 8 12 16 19 23 24 27 31 30 31 31 23 28 30 33 35 36
6 4 3 4 6 2 7 3 4 3 2 3 2 2 3 10 15 20 21 23 22 22 22 19 23 25 23 12 11 13 18 20 24 23 31 32 33 29 25 26 23 26 31 32
6 1 2 3 5 2 6 2 2 3 3 2 2 3 2 8 12 15 18 21 22 21 20 19 21 18 23 27 7 7 15 18 18 18 26 30 34 34 27 27 30 31 31 32
5 1 5 7 4 4 3 3 3 2 1 2 1 1 1 3 8 12 14 17 19 21 19 20 22 24 28 26 14 2 3 1 17 19 18 26 38 33 34 31 35 28 30 33
4 2 1 0 1 2 1 1 2 2 2 4 2 2 4 3 9 13 15 16 16 18 19 19 18 21 24 25 22 6 9 7 16 17 16 12 11 17 17 19 24 31 30 32
1 5 3 0 2 2 3 2 2 1 3 2 2 3 0 5 10 12 14 15 15 14 17 18 18 25 27 28 27 26 19 16 9 17 16 16 15 16 17 19 21 21 26 28
2 2 1 3 3 3 1 1 2 1 4 3 3 2 1 3 6 9 11 12 14 15 14 14 14 24 26 26 28 26 26 20 19 20 19 15 15 13 13 13 17 22 25 29
1 2 5 2 1 1 1 1 0 2 1 2 4 2 1 1 5 5 8 10 11 13 14 13 15 21 23 25 27 28 27 24 25 25 25 21 16 13 11 15 20 20 24 24
1 1 4 2 3 2 3 2 2 3 1 4 3 1 1 2 4 3 6 8 9 11 13 14 14 16 21 22 25 25 27 26 28 28 29 29 26 22 19 18 15 19 23 21
4 1 4 3 3 1 4 4 4 3 3 3 7 10 7 3 4 4 6 6 7 9 11 13 13 14 19 21 23 24 25 25 26 28 28 25 24 23 22 15 15 18 17 16
2 3 4 10 11 7 8 9 8 7 7 5 2 7 11 9 5 3 5 5 5 7 8 10 12 12 18 19 20 21 21 21 19 21 26 22 20 21 19 19 19 15 10 9
0 2 1 4 3 8 9 12 11 12 12 14 15 16 8 6 4 5 2 3 4 4 5 8 8 11 14 17 18 17 17 18 17 19 19 17 17 16 17 18 19 17 16 14
2 1 2 3 2 4 7 8 12 6 7 6 7 4 3 5 7 7 5 6 3 3 3 4 5 7 9 12 13 15 15 15 18 18 17 16 15 14 14 13 13 13 13 12
2 2 2 3 2 3 2 2 4 11 11 13 14 12 8 8 5 7 7 8 7 5 3 1 2 4 6 7 8 9 12 14 14 14 15 15 14 13 12 12 12 11 10 8
4 2 2 3 3 7 3 5 6 7 4 13 18 15 11 6 6 14 13 12 9 7 5 3 2 1 2 3 5 7 9 9 11 13 12 12 11 10 10 11 10 9 11 10
3 4 3 0 3 4 2 5 5 3 6 9 12 9 10 8 5 4 3 9 10 10 8 6 5 3 1 2 3 5 7 8 10 10 10 10 11 11 11 10 10 9 9 8
4 3 6 6 6 8 4 9 7 2 2 7 9 8 11 9 9 3 3 6 9 10 9 8 7 6 4 2 0 3 4 5 5 5 7 9 9 9 9 9 8 8 8 7
7 7 5 4 4 8 12 8 6 1 3 6 9 11 13 15 8 9 6 8 9 9 9 10 8 8 6 5 4 3 2 2 3 3 5 6 6 7 7 7 6 6 6 7
5 7 3 8 5 2 21 5 15 2 4 6 10 10 14 12 13 12 9 11 11 14 12 11 11 8 7 7 6 5 4 3 3 2 2 4 4 5 6 6 7 6 7 7
6 6 5 3 7 16 14 18 13 9 12 7 10 10 12 15 13 13 13 11 10 13 14 14 12 11 10 10 9 6 4 3 2 2 2 3 3 4 5 4 5 4 4 5
3 9 7 9 20 14 19 17 17 15 14 13 12 13 14 14 14 14 12 12 13 15 15 14 14 13 13 11 11 11 9 7 5 4 3 1 1 2 3 3 3 4 3 3
10 15 9 11 18 12 16 8 7 12 13 14 13 12 15 15 16 13 12 13 15 16 15 14 14 13 13 13 12 12 12 10 8 6 4 3 2 2 4 6 6 7 4 7
Wind_Direction
238 271 268 311 282 276 262 263 270 278 297 283 279 303 299 333 342 338 338 332 322 313 310 302 291 278 262 240 234 217 212 212 209 214 208 214 215 210 203 205 197 194 194 197
244 274 327 301 268 264 287 287 283 292 280 296 294 298 315 41 346 344 341 335 327 322 322 323 306 282 243 230 224 220 214 205 211 210 216 210 213 214 204 196 198 192 195 195
279 321 312 294 308 279 289 304 302 291 313 271 293 248 150 6 358 349 353 341 337 335 327 330 322 307 245 219 218 218 215 212 211 207 209 214 205 206 203 196 193 191 191 192
264 326 327 317 300 272 304 7 312 293 309 328 349 268 138 359 354 354 357 346 337 337 336 335 325 295 265 239 226 225 221 218 215 210 207 206 204 202 201 190 184 184 191 197
5 298 338 345 348 309 318 279 281 294 271 284 170 248 89 4 353 351 354 342 338 342 344 342 6 6 304 243 219 216 221 220 217 212 210 207 209 208 193 190 187 187 194 197
286 293 270 324 329 30 312 254 212 224 253 231 41 240 62 11 348 344 349 342 339 344 343 348 359 3 356 312 227 220 221 221 217 215 212 205 203 203 201 200 191 191 192 194
326 25 303 315 331 217 358 300 167 169 215 58 26 249 54 5 4 5 349 337 343 346 350 351 1 356 348 342 238 237 221 213 211 221 211 203 202 201 192 186 194 197 195 198
353 84 8 6 15 313 348 338 348 2 356 20 231 355 79 29 20 16 9 341 347 349 349 354 355 350 347 355 19 45 149 324 209 202 191 201 198 178 193 194 197 202 202 200
339 258 356 81 339 305 31 44 3 307 226 268 350 175 202 242 12 15 12 353 351 349 349 348 347 350 350 356 0 349 95 94 186 194 188 196 168 170 178 186 196 198 195 193
16 295 179 297 220 130 351 13 246 236 290 282 198 270 290 344 357 0 8 360 356 348 348 349 351 350 351 2 0 17 31 40 122 182 173 181 184 181 183 184 187 183 186 191
315 280 98 210 38 8 107 89 81 271 311 310 304 106 131 350 352 352 359 358 354 355 354 350 352 354 356 7 9 10 26 35 64 120 147 151 170 172 177 169 193 204 207 204
31 286 280 353 63 290 331 65 141 278 151 339 314 310 133 34 345 340 349 351 354 2 356 1 5 6 6 9 9 13 14 38 50 75 91 102 115 125 138 184 203 211 202 203
151 217 306 212 171 173 259 185 119 127 237 222 284 48 99 256 301 336 337 344 352 356 358 6 12 14 16 13 17 18 18 34 55 68 68 72 78 89 91 100 134 170 180 188
196 237 254 282 286 302 272 237 209 223 209 181 240 292 303 263 286 324 338 338 348 356 2 0 9 10 16 21 20 24 26 30 48 70 74 72 71 75 78 88 96 92 104 111
263 246 223 264 261 240 252 260 248 220 247 228 145 253 280 290 300 330 323 327 341 354 4 3 0 6 10 16 24 31 32 30 40 53 57 58 67 74 76 84 92 104 110 108
16 280 308 273 303 236 272 266 252 249 252 257 264 275 259 284 231 231 243 306 319 337 2 360 3 5 8 9 12 26 30 37 42 50 52 51 57 58 63 63 70 74 76 79
234 244 277 268 60 317 276 240 203 212 217 227 228 240 186 224 231 242 216 207 236 289 342 359 2 4 5 2 2 15 25 32 42 45 46 51 55 58 58 62 64 65 66 69
216 207 223 289 294 245 94 144 228 229 252 231 253 249 237 255 256 260 230 218 202 202 220 297 352 356 1 2 15 24 30 40 46 49 45 39 47 49 55 62 61 63 70 73
230 265 268 285 265 309 208 204 199 201 265 212 231 252 235 231 290 270 233 214 211 200 200 206 244 282 360 13 18 29 39 47 52 49 51 51 53 57 58 54 52 53 52 59
169 244 253 310 280 259 91 155 148 134 263 193 201 218 208 177 243 255 188 204 197 195 197 198 209 216 250 7 19 52 46 42 42 36 40 46 52 54 54 56 58 56 56 53
177 204 226 219 252 272 192 144 145 217 58 174 204 216 179 198 221 116 155 193 202 201 199 198 197 212 205 204 22 42 54 59 43 51 55 52 49 51 52 51 48 42 39 37
192 179 203 187 235 273 147 123 204 158 166 188 199 214 209 223 220 216 200 198 201 204 197 203 207 206 207 205 200 182 132 90 83 72 73 64 50 48 52 55 54 46 34 36
244 218 217 217 228 68 186 225 220 230 189 197 212 215 218 228 232 225 220 213 207 206 207 206 212 214 211 214 216 211 185 163 143 126 80 65 62 52 44 44 32 26 21 22
226 191 237 258 225 236 218 243 248 241 236 224 219 222 209 222 226 229 228 224 224 222 211 201 206 216 217 215 220 226 209 195 179 139 89 61 55 44 28 25 22 16 11 8
231 163 219 254 273 265 259 238 248 247 242 246 240 227 222 222 232 224 223 224 221 218 216 214 217 220 224 213 212 210 211 206 201 192 182 166 80 33 6 357 343 328 322 334
198 226 228 248 259 252 280 276 228 236 238 239 241 236 234 228 231 227 230 222 215 213 208 211 220 228 232 222 214 208 208 207 205 205 206 199 207 304 326 319 308 296 282 303